User: anonymous   Login
Location: Владивосток
(43.1151°N, 131.8856°E)
Time: 19:37:13
(UTC+10:00)
Language:

FENGYUN 1C DEB - Orbit

View from above orbital plane
View from above orbital plane
View from above satellite
View from above satellite

Ground track
Ground track

The orbit data is extracted from the following two-line orbital elements,

1 30141U 99025SW  22329.54793186  .00002402  00000-0  95933-3 0  9995
2 30141  99.0658 176.7986 0024203  69.4927 290.8849 14.29311570822386
Epoch (UTC): 25 November 2022 13:09:01
Eccentricity: 0.0024203
inclination: 99.0658°
perigee height: 776 km
apogee height: 811 km
right ascension of ascending node: 176.7986°
argument of perigee: 69.4927°
revolutions per day: 14.29311570
mean anomaly at epoch: 290.8849°
orbit number at epoch: 82238

The dashed part of the orbit path shows where the satellite is in the earth's shadow,  

DLR